When you browse on this site, cookies collect data to enhance your experience and personalize the content and advertising you see.
Visit our Privacy Policy to learn more. By continuing to use the site, you agree to this use of cookies and data.
  • In United Kingdom
  • List of Countries
  • For 7 days
  • Water Temperature
  • Weather Map
  • Weather Widgets
  • user-avatar
    Login

    Hourly Weather Zalonickie

    Today, 6 April, Monday

    Time Temperature Precipitation Wind Pressure Humidity
    00:00 +2°C° 0 mm 1 mps 763 mmHg 65%
    01:00 +2°C° 0 mm 1 mps 763 mmHg 68%
    02:00 +2°C° 0 mm 1 mps 764 mmHg 72%
    03:00 +2°C° 0 mm 1 mps 764 mmHg 76%
    04:00 +1°C° 0 mm 2 mps 763 mmHg 81%
    05:00 +1°C° 0 mm 2 mps 763 mmHg 86%
    06:00 +3°C° 0 mm 2 mps 764 mmHg 85%
    07:00 +3°C° 0 mm 3 mps 764 mmHg 83%
    08:00 +4°C° 0 mm 3 mps 764 mmHg 81%
    09:00 +5°C° 0 mm 3 mps 764 mmHg 74%
    10:00 +8°C° 0 mm 3 mps 764 mmHg 67%
    11:00 +10°C° 0 mm 4 mps 764 mmHg 60%
    12:00 +10°C° 0 mm 4 mps 764 mmHg 56%
    13:00 +11°C° 0 mm 4 mps 764 mmHg 53%
    14:00 +12°C° 0 mm 4 mps 764 mmHg 49%
    15:00 +12°C° 0 mm 4 mps 764 mmHg 49%
    16:00 +12°C° 0 mm 3 mps 764 mmHg 49%
    17:00 +12°C° 0 mm 3 mps 764 mmHg 49%
    18:00 +10°C° 0 mm 2 mps 763 mmHg 55%
    19:00 +8°C° 0 mm 2 mps 763 mmHg 61%
    20:00 +8°C° 0 mm 1 mps 763 mmHg 67%
    21:00 +7°C° 0 mm 1 mps 763 mmHg 68%
    22:00 +7°C° 0 mm 1 mps 764 mmHg 69%
    23:00 +7°C° 0 mm 1 mps 764 mmHg 70%

    Tomorrow, 7 April, Tuesday

    Time Temperature Precipitation Wind Pressure Humidity
    00:00 +6°C° 0 mm 1 mps 764 mmHg 71%
    01:00 +6°C° 0 mm 1 mps 764 mmHg 73%
    02:00 +4°C° 0 mm 2 mps 764 mmHg 74%
    03:00 +4°C° 0 mm 2 mps 764 mmHg 75%
    04:00 +4°C° 0 mm 2 mps 763 mmHg 75%
    05:00 +3°C° 0 mm 2 mps 763 mmHg 75%
    06:00 +4°C° 0 mm 3 mps 763 mmHg 70%
    07:00 +5°C° 0 mm 3 mps 763 mmHg 64%
    08:00 +6°C° 0 mm 4 mps 763 mmHg 58%
    09:00 +8°C° 0 mm 4 mps 762 mmHg 52%
    10:00 +10°C° 0 mm 5 mps 762 mmHg 46%
    11:00 +13°C° 0 mm 6 mps 761 mmHg 40%
    12:00 +13°C° 0 mm 6 mps 761 mmHg 39%
    13:00 +14°C° 0 mm 6 mps 760 mmHg 38%
    14:00 +15°C° 0 mm 6 mps 760 mmHg 38%
    15:00 +15°C° 0 mm 6 mps 759 mmHg 41%
    16:00 +15°C° 0 mm 6 mps 759 mmHg 43%
    17:00 +15°C° 0 mm 5 mps 758 mmHg 46%
    18:00 +13°C° 0 mm 5 mps 758 mmHg 52%
    19:00 +12°C° 0 mm 5 mps 757 mmHg 57%
    20:00 +10°C° 0 mm 5 mps 757 mmHg 62%
    21:00 +10°C° 0 mm 5 mps 757 mmHg 66%
    22:00 +9°C° 0 mm 5 mps 757 mmHg 69%
    23:00 +9°C° 0 mm 5 mps 757 mmHg 73%

    Day after tomorrow, 8 April, Wednesday

    Time Temperature Precipitation Wind Pressure Humidity
    00:00 +8°C° 0 mm 5 mps 757 mmHg 76%
    01:00 +7°C° 0 mm 4 mps 757 mmHg 78%
    02:00 +6°C° 0 mm 4 mps 757 mmHg 81%
    03:00 +6°C° 0 mm 4 mps 757 mmHg 80%
    04:00 +6°C° 0 mm 4 mps 758 mmHg 79%
    05:00 +5°C° 0 mm 4 mps 758 mmHg 78%
    06:00 +6°C° 0 mm 4 mps 758 mmHg 75%
    07:00 +6°C° 0 mm 4 mps 758 mmHg 73%
    08:00 +6°C° 0 mm 4 mps 759 mmHg 70%
    09:00 +7°C° 0 mm 4 mps 759 mmHg 65%
    10:00 +9°C° 0 mm 3 mps 759 mmHg 60%
    11:00 +11°C° 0 mm 3 mps 759 mmHg 55%
    12:00 +11°C° 0 mm 3 mps 759 mmHg 50%
    13:00 +12°C° 0 mm 3 mps 758 mmHg 46%
    14:00 +13°C° 0 mm 3 mps 758 mmHg 41%
    15:00 +13°C° 0 mm 3 mps 758 mmHg 42%
    16:00 +13°C° 0 mm 3 mps 757 mmHg 42%
    17:00 +14°C° 0 mm 2 mps 757 mmHg 43%
    18:00 +12°C° 0 mm 2 mps 756 mmHg 48%
    19:00 +11°C° 0 mm 1 mps 756 mmHg 53%
    20:00 +8°C° 0 mm 0 mps 756 mmHg 58%
    21:00 +9°C° 0 mm 1 mps 756 mmHg 60%
    22:00 +8°C° 0 mm 1 mps 755 mmHg 62%
    23:00 +7°C° 0 mm 2 mps 755 mmHg 64%

    9 April, Thursday

    Time Temperature Precipitation Wind Pressure Humidity
    00:00 +6°C° 0 mm 2 mps 755 mmHg 66%
    01:00 +6°C° 0 mm 2 mps 754 mmHg 68%
    02:00 +5°C° 0 mm 2 mps 754 mmHg 70%
    03:00 +5°C° 0 mm 2 mps 753 mmHg 73%
    04:00 +5°C° 0 mm 2 mps 753 mmHg 76%
    05:00 +4°C° 0 mm 3 mps 753 mmHg 79%
    06:00 +5°C° 0 mm 3 mps 752 mmHg 76%
    07:00 +7°C° 0 mm 3 mps 752 mmHg 72%
    08:00 +8°C° 0 mm 4 mps 751 mmHg 68%
    09:00 +11°C° 0 mm 4 mps 751 mmHg 63%
    10:00 +12°C° 0 mm 5 mps 750 mmHg 59%
    11:00 +14°C° 0 mm 5 mps 750 mmHg 54%
    12:00 +14°C° 0.1 mm 5 mps 749 mmHg 56%
    13:00 +14°C° 0.1 mm 5 mps 748 mmHg 59%
    14:00 +14°C° 0.1 mm 4 mps 748 mmHg 61%
    15:00 +14°C° 0.2 mm 4 mps 747 mmHg 61%
    16:00 +14°C° 0.2 mm 5 mps 746 mmHg 61%
    17:00 +14°C° 0.2 mm 5 mps 746 mmHg 61%
    18:00 +13°C° 0.3 mm 5 mps 745 mmHg 66%
    19:00 +11°C° 0.3 mm 6 mps 745 mmHg 72%
    20:00 +9°C° 0.3 mm 6 mps 745 mmHg 78%
    21:00 +8°C° 0 mm 6 mps 745 mmHg 79%
    22:00 +8°C° 0 mm 5 mps 745 mmHg 80%
    23:00 +7°C° 0 mm 5 mps 745 mmHg 81%

    10 April, Friday

    Time Temperature Precipitation Wind Pressure Humidity
    00:00 +7°C° 0.1 mm 5 mps 745 mmHg 80%
    01:00 +6°C° 0.1 mm 5 mps 745 mmHg 80%
    02:00 +5°C° 0.1 mm 6 mps 745 mmHg 80%
    03:00 +4°C° 0 mm 6 mps 746 mmHg 79%
    04:00 +5°C° 0 mm 5 mps 746 mmHg 77%
    05:00 +3°C° 0 mm 5 mps 746 mmHg 75%
    06:00 +3°C° 0 mm 5 mps 747 mmHg 73%
    07:00 +3°C° 0 mm 5 mps 747 mmHg 71%
    08:00 +3°C° 0 mm 5 mps 748 mmHg 69%
    09:00 +5°C° 0 mm 5 mps 748 mmHg 63%
    10:00 +5°C° 0 mm 6 mps 748 mmHg 57%
    11:00 +7°C° 0 mm 6 mps 748 mmHg 51%
    12:00 +6°C° 0.2 mm 7 mps 748 mmHg 51%
    13:00 +6°C° 0.2 mm 7 mps 748 mmHg 52%
    14:00 +6°C° 0.2 mm 7 mps 749 mmHg 52%
    15:00 +6°C° 0 mm 7 mps 749 mmHg 48%
    16:00 +6°C° 0 mm 7 mps 749 mmHg 44%
    17:00 +5°C° 0 mm 7 mps 749 mmHg 39%
    18:00 +4°C° 0 mm 6 mps 749 mmHg 44%
    19:00 +2°C° 0 mm 5 mps 750 mmHg 49%
    20:00 +1°C° 0 mm 5 mps 750 mmHg 54%
    21:00 0°C° 0 mm 4 mps 750 mmHg 58%
    22:00 -1°C° 0 mm 4 mps 751 mmHg 61%
    23:00 -2°C° 0 mm 4 mps 751 mmHg 65%

    11 April, Saturday

    Time Temperature Precipitation Wind Pressure Humidity
    00:00 -2°C° 0 mm 4 mps 751 mmHg 67%
    01:00 -3°C° 0 mm 4 mps 751 mmHg 69%
    02:00 -2°C° 0 mm 3 mps 751 mmHg 70%
    03:00 -2°C° 0 mm 3 mps 751 mmHg 71%
    04:00 -2°C° 0 mm 3 mps 752 mmHg 72%
    05:00 -4°C° 0 mm 3 mps 752 mmHg 72%
    06:00 -2°C° 0 mm 3 mps 752 mmHg 68%
    07:00 -1°C° 0 mm 3 mps 752 mmHg 64%
    08:00 0°C° 0 mm 3 mps 752 mmHg 60%
    09:00 +2°C° 0 mm 2 mps 752 mmHg 55%
    10:00 +4°C° 0 mm 2 mps 751 mmHg 50%
    11:00 +5°C° 0 mm 2 mps 751 mmHg 45%
    12:00 +5°C° 0 mm 2 mps 751 mmHg 43%
    13:00 +6°C° 0 mm 2 mps 751 mmHg 42%
    14:00 +6°C° 0 mm 2 mps 750 mmHg 40%
    15:00 +6°C° 0 mm 2 mps 750 mmHg 40%
    16:00 +6°C° 0 mm 2 mps 749 mmHg 40%
    17:00 +6°C° 0 mm 2 mps 749 mmHg 40%
    18:00 +5°C° 0 mm 2 mps 749 mmHg 44%
    19:00 +6°C° 0 mm 1 mps 748 mmHg 48%
    20:00 +5°C° 0 mm 1 mps 748 mmHg 52%
    21:00 +4°C° 0 mm 2 mps 747 mmHg 53%
    22:00 +3°C° 0 mm 2 mps 747 mmHg 54%
    23:00 +3°C° 0 mm 2 mps 746 mmHg 55%
    Show more